カタログに戻る

STARLINK-30318

運用中通信VLEO
NORAD 57711·PAYLOAD·🇺🇸 United States

打ち上げ Aug 27, 2023 から Cape Canaveral Space Force Station

Loading…

次のパス (今後24時間)

TLE

最新Source: CelesTrak SupGP

元期: Sep 15, 2026, 03:10 UTC

1 57711C 23129P   26258.13243056  .00059518  00000+0  21546-2 0  2580
2 57711  43.0027 127.7350 0001486 270.1978 274.8640 15.27566071    19

AllMySatでSTARLINK-30318をリアルタイム追跡

Download on the App Store